| time (UTC) | temp C | wind direction | speed KPH | gust KPH | rain 1hr cm | rain 24hr cm | rain mn cm | humidity % | barometer mb |
| 20260509000032 | 18 | 0 | 0.0 | 1.6 | 0.00 | 0.00 | 0.00 | 65 | 1014.1 |
| 20260508234532 | 18 | 0 | 0.0 | 3.2 | 0.00 | 0.00 | 0.00 | 65 | 1014.0 |
| 20260508233031 | 18 | 0 | 0.0 | 4.8 | 0.00 | 0.00 | 0.00 | 64 | 1014.1 |
| 20260508231529 | 19 | 0 | 0.0 | 1.6 | 0.00 | 0.00 | 0.00 | 62 | 1014.2 |
| 20260508230032 | 19 | 0 | 0.0 | 3.2 | 0.00 | 0.00 | 0.00 | 61 | 1014.0 |
| 20260508224532 | 19 | 0 | 0.0 | 4.8 | 0.00 | 0.00 | 0.00 | 60 | 1014.1 |
| 20260508223030 | 19 | 0 | 0.0 | 6.4 | 0.00 | 0.00 | 0.00 | 60 | 1014.0 |
| 20260508221530 | 19 | 229 | 1.6 | 6.4 | 0.00 | 0.00 | 0.00 | 59 | 1014.0 |
| 20260508220034 | 20 | 256 | 0.0 | 6.4 | 0.00 | 0.00 | 0.00 | 59 | 1013.9 |
| 20260508214532 | 20 | 245 | 1.6 | 6.4 | 0.00 | 0.00 | 0.00 | 59 | 1013.9 |
| 20260508213032 | 20 | 219 | 1.6 | 12.9 | 0.00 | 0.00 | 0.00 | 58 | 1014.1 |
| 20260508211530 | 20 | 202 | 0.0 | 4.8 | 0.00 | 0.00 | 0.00 | 56 | 1014.1 |
| 20260508210034 | 20 | 0 | 1.6 | 9.7 | 0.00 | 0.00 | 0.00 | 58 | 1014.0 |
| 20260508204530 | 20 | 0 | 1.6 | 12.9 | 0.00 | 0.00 | 0.00 | 55 | 1014.2 |
| 20260508203034 | 20 | 0 | 0.0 | 4.8 | 0.00 | 0.00 | 0.00 | 56 | 1014.4 |
| 20260508201530 | 20 | 0 | 0.0 | 4.8 | 0.00 | 0.00 | 0.00 | 54 | 1014.3 |
| 20260508200030 | 20 | 0 | 0.0 | 8.0 | 0.00 | 0.00 | 0.00 | 54 | 1014.5 |
| 20260508194531 | 21 | 246 | 6.4 | 17.7 | 0.00 | 0.00 | 0.00 | 52 | 1015.0 |
| 20260508193032 | 21 | 210 | 4.8 | 11.3 | 0.00 | 0.00 | 0.00 | 50 | 1015.2 |
| 20260508191537 | 21 | 202 | 1.6 | 8.0 | 0.00 | 0.00 | 0.00 | 50 | 1015.3 |
| 20260508190037 | 20 | 235 | 0.0 | 4.8 | 0.00 | 0.00 | 0.00 | 56 | 1015.4 |
| 20260508184530 | 21 | 94 | 0.0 | 14.5 | 0.00 | 0.00 | 0.00 | 52 | 1015.8 |
| 20260508183031 | 21 | 120 | 0.0 | 6.4 | 0.00 | 0.00 | 0.00 | 54 | 1015.9 |
| 20260508181531 | 20 | 0 | 0.0 | 4.8 | 0.00 | 0.00 | 0.00 | 55 | 1016.2 |
| 20260508180032 | 20 | 0 | 3.2 | 14.5 | 0.00 | 0.00 | 0.00 | 54 | 1016.4 |
| 20260508174546 | 20 | 0 | 0.0 | 11.3 | 0.00 | 0.00 | 0.00 | 55 | 1016.4 |
| 20260508173031 | 19 | 263 | 0.0 | 6.4 | 0.00 | 0.00 | 0.00 | 58 | 1016.6 |
| 20260508171528 | 19 | 0 | 0.0 | 3.2 | 0.00 | 0.00 | 0.00 | 56 | 1016.8 |
| 20260508170034 | 20 | 0 | 0.0 | 3.2 | 0.00 | 0.00 | 0.00 | 57 | 1017.1 |
| 20260508164530 | 19 | 244 | 0.0 | 11.3 | 0.00 | 0.00 | 0.00 | 55 | 1017.3 |
| 20260508163050 | 18 | 0 | 0.0 | 6.4 | 0.00 | 0.00 | 0.00 | 59 | 1017.5 |
| 20260508161530 | 18 | 260 | 3.2 | 8.0 | 0.00 | 0.00 | 0.00 | 53 | 1017.6 |
| 20260508160033 | 20 | 71 | 1.6 | 4.8 | 0.00 | 0.00 | 0.00 | 51 | 1017.6 |
| 20260508154530 | 19 | 84 | 0.0 | 8.0 | 0.00 | 0.08 | 0.00 | 53 | 1017.9 |
| 20260508153031 | 18 | 0 | 1.6 | 9.7 | 0.00 | 0.08 | 0.00 | 54 | 1018.1 |
| 20260508151534 | 18 | 53 | 0.0 | 12.9 | 0.00 | 0.08 | 0.00 | 56 | 1018.1 |
| 20260508150031 | 18 | 148 | 0.0 | 6.4 | 0.00 | 0.08 | 0.00 | 59 | 1018.1 |
| 20260508144535 | 17 | 105 | 0.0 | 9.7 | 0.00 | 0.23 | 0.00 | 59 | 1018.0 |
| 20260508143028 | 17 | 112 | 1.6 | 11.3 | 0.00 | 0.23 | 0.00 | 59 | 1018.0 |
| 20260508141530 | 17 | 0 | 0.0 | 4.8 | 0.00 | 0.23 | 0.00 | 63 | 1018.1 |
| 20260508140032 | 17 | 94 | 1.6 | 6.4 | 0.00 | 0.23 | 0.00 | 62 | 1018.4 |
| 20260508134534 | 16 | 0 | 0.0 | 6.4 | 0.00 | 0.43 | 0.00 | 65 | 1018.4 |
| 20260508133030 | 16 | 106 | 1.6 | 4.8 | 0.00 | 0.43 | 0.00 | 71 | 1018.4 |
| 20260508131531 | 15 | 0 | 0.0 | 6.4 | 0.00 | 0.43 | 0.00 | 72 | 1018.3 |
| 20260508130027 | 14 | 71 | 1.6 | 6.4 | 0.00 | 0.43 | 0.00 | 73 | 1018.3 |
| 20260508124528 | 13 | 0 | 0.0 | 6.4 | 0.00 | 0.66 | 0.00 | 76 | 1018.0 |
| 20260508123034 | 13 | 0 | 0.0 | 6.4 | 0.00 | 0.66 | 0.00 | 75 | 1017.8 |
| 20260508121534 | 12 | 0 | 0.0 | 6.4 | 0.00 | 0.66 | 0.00 | 77 | 1017.7 |
| 20260508120028 | 12 | 0 | 0.0 | 3.2 | 0.00 | 0.66 | 0.00 | 78 | 1017.5 |
| 20260508114527 | 11 | 0 | 0.0 | 4.8 | 0.00 | 0.97 | 0.00 | 81 | 1017.3 |
| 20260508113030 | 10 | 0 | 0.0 | 4.8 | 0.00 | 0.97 | 0.00 | 85 | 1017.2 |
| 20260508111527 | 10 | 0 | 0.0 | 4.8 | 0.00 | 0.97 | 0.00 | 86 | 1016.8 |
| 20260508110038 | 10 | 0 | 0.0 | 3.2 | 0.00 | 0.97 | 0.00 | 88 | 1016.6 |
| 20260508104528 | 10 | 0 | 0.0 | 3.2 | 0.00 | 1.27 | 0.00 | 88 | 1016.2 |
| 20260508103036 | 10 | 0 | 0.0 | 3.2 | 0.00 | 1.27 | 0.00 | 88 | 1016.0 |
| 20260508101535 | 10 | 324 | 0.0 | 3.2 | 0.00 | 1.27 | 0.00 | 87 | 1015.8 |
| 20260508100030 | 10 | 324 | 0.0 | 3.2 | 0.00 | 1.27 | 0.00 | 87 | 1015.6 |
| 20260508094528 | 10 | 324 | 0.0 | 3.2 | 0.00 | 1.47 | 0.00 | 87 | 1015.4 |
| 20260508093048 | 10 | 0 | 1.6 | 4.8 | 0.00 | 1.47 | 0.00 | 87 | 1015.3 |
| 20260508091531 | 10 | 324 | 0.0 | 6.4 | 0.00 | 1.47 | 0.00 | 89 | 1015.3 |
| 20260508090046 | 10 | 0 | 0.0 | 3.2 | 0.00 | 1.47 | 0.00 | 90 | 1015.2 |
| 20260508084528 | 10 | 74 | 0.0 | 1.6 | 0.00 | 2.06 | 0.00 | 89 | 1015.2 |
| 20260508083031 | 10 | 0 | 0.0 | 1.6 | 0.00 | 2.06 | 0.00 | 89 | 1015.0 |
| 20260508081528 | 10 | 0 | 0.0 | 3.2 | 0.00 | 2.06 | 0.00 | 89 | 1014.9 |
| 20260508080036 | 10 | 0 | 0.0 | 3.2 | 0.00 | 2.06 | 0.00 | 89 | 1014.9 |
| 20260508074536 | 10 | 76 | 0.0 | 0.0 | 0.00 | 2.64 | 0.00 | 88 | 1015.0 |
| 20260508073030 | 11 | 0 | 0.0 | 0.0 | 0.00 | 2.64 | 0.00 | 87 | 1014.8 |
| 20260508071530 | 11 | 0 | 0.0 | 1.6 | 0.00 | 2.64 | 0.00 | 87 | 1014.8 |
| 20260508070030 | 11 | 0 | 0.0 | 0.0 | 0.00 | 2.64 | 0.00 | 86 | 1014.7 |
| 20260508064529 | 11 | 0 | 0.0 | 1.6 | 0.00 | 3.25 | 0.00 | 86 | 1014.4 |
| 20260508063031 | 11 | 0 | 0.0 | 0.0 | 0.00 | 3.25 | 0.00 | 85 | 1014.5 |
| 20260508061530 | 11 | 0 | 0.0 | 0.0 | 0.00 | 3.25 | 0.00 | 84 | 1014.5 |
| 20260508060030 | 12 | 0 | 0.0 | 0.0 | 0.00 | 3.25 | 0.00 | 84 | 1014.5 |
| 20260508054531 | 12 | 0 | 0.0 | 0.0 | 0.00 | 3.73 | 0.00 | 83 | 1014.5 |
| 20260508053032 | 12 | 0 | 0.0 | 0.0 | 0.00 | 3.73 | 0.00 | 83 | 1014.6 |
| 20260508051529 | 12 | 0 | 0.0 | 1.6 | 0.00 | 3.73 | 0.00 | 82 | 1014.5 |
| 20260508050030 | 12 | 0 | 0.0 | 1.6 | 0.00 | 3.73 | 0.00 | 81 | 1014.5 |
| 20260508044532 | 13 | 0 | 0.0 | 0.0 | 0.00 | 4.27 | 0.00 | 80 | 1014.4 |
| 20260508043031 | 13 | 0 | 0.0 | 1.6 | 0.00 | 4.27 | 0.00 | 79 | 1014.3 |
| 20260508041534 | 13 | 0 | 0.0 | 0.0 | 0.00 | 4.27 | 0.00 | 77 | 1014.1 |
| 20260508040035 | 14 | 0 | 0.0 | 0.0 | 0.00 | 4.27 | 0.00 | 76 | 1013.8 |
| 20260508034528 | 14 | 0 | 0.0 | 1.6 | 0.00 | 4.27 | 4.27 | 74 | 1014.3 |
| 20260508033036 | 14 | 0 | 0.0 | 3.2 | 0.00 | 4.27 | 4.27 | 74 | 1013.9 |
| 20260508031533 | 15 | 0 | 0.0 | 1.6 | 0.00 | 4.27 | 4.27 | 74 | 1013.9 |
| 20260508030039 | 15 | 0 | 0.0 | 3.2 | 0.00 | 4.27 | 4.27 | 74 | 1013.8 |
| 20260508024530 | 15 | 0 | 0.0 | 1.6 | 0.00 | 4.29 | 4.27 | 74 | 1013.7 |
| 20260508023040 | 15 | 0 | 0.0 | 3.2 | 0.00 | 4.29 | 4.27 | 73 | 1013.6 |
| 20260508021535 | 16 | 0 | 1.6 | 6.4 | 0.00 | 4.29 | 4.27 | 72 | 1013.3 |
| 20260508020029 | 16 | 0 | 0.0 | 8.0 | 0.00 | 4.29 | 4.27 | 72 | 1013.0 |
| 20260508014534 | 16 | 337 | 0.0 | 8.0 | 0.00 | 5.46 | 4.27 | 71 | 1012.7 |
| 20260508013029 | 17 | 0 | 0.0 | 4.8 | 0.00 | 5.46 | 4.27 | 69 | 1012.4 |
| 20260508011527 | 17 | 0 | 0.0 | 9.7 | 0.00 | 5.46 | 4.27 | 68 | 1012.0 |
| 20260508010039 | 18 | 329 | 3.2 | 8.0 | 0.00 | 5.46 | 4.27 | 66 | 1011.8 |
| 20260508004533 | 19 | 330 | 1.6 | 8.0 | 0.00 | 5.74 | 4.27 | 64 | 1011.4 |
| 20260508003028 | 20 | 63 | 1.6 | 9.7 | 0.00 | 5.74 | 4.27 | 62 | 1011.1 |
| 20260508001535 | 20 | 296 | 3.2 | 24.1 | 0.00 | 5.74 | 4.27 | 60 | 1010.5 |